• In Russia
  • List of Countries
  • For 7 days
  • Water Temperature
  • Weather Map
  • Weather Widgets
  • user-avatar
    Login

    Hourly Weather Sydney

    Today, 17 November, Sunday

    Time Temperature Precipitation Wind Pressure Humidity
    00:00 +19°C° 0.1 mm 2 mps 761 mmHg 79%
    01:00 +19°C° 0.1 mm 3 mps 761 mmHg 82%
    02:00 +18°C° 1.6 mm 2 mps 760 mmHg 84%
    03:00 +18°C° 1.6 mm 2 mps 760 mmHg 86%
    04:00 +18°C° 0 mm 1 mps 760 mmHg 88%
    05:00 +18°C° 0.7 mm 2 mps 760 mmHg 84%
    06:00 +19°C° 0.7 mm 2 mps 760 mmHg 81%
    07:00 +20°C° 0.7 mm 2 mps 760 mmHg 78%
    08:00 +21°C° 0.4 mm 3 mps 760 mmHg 72%
    09:00 +22°C° 0.4 mm 3 mps 760 mmHg 66%
    10:00 +23°C° 0 mm 5 mps 760 mmHg 55%
    11:00 +23°C° 0.2 mm 6 mps 760 mmHg 56%
    12:00 +23°C° 0.2 mm 7 mps 760 mmHg 57%
    13:00 +23°C° 0.2 mm 8 mps 760 mmHg 58%
    14:00 +22°C° 0.1 mm 7 mps 760 mmHg 61%
    15:00 +21°C° 0.1 mm 7 mps 761 mmHg 64%
    16:00 +20°C° 0.1 mm 7 mps 761 mmHg 67%
    17:00 +19°C° 0.1 mm 6 mps 762 mmHg 70%
    18:00 +17°C° 0.1 mm 5 mps 762 mmHg 72%
    19:00 +18°C° 0.1 mm 4 mps 763 mmHg 75%
    20:00 +18°C° 0.1 mm 4 mps 764 mmHg 76%
    21:00 +17°C° 0.1 mm 4 mps 764 mmHg 76%
    22:00 +17°C° 0.1 mm 4 mps 765 mmHg 77%
    23:00 +17°C° 0 mm 3 mps 764 mmHg 77%

    Tomorrow, 18 November, Monday

    Time Temperature Precipitation Wind Pressure Humidity
    00:00 +17°C° 0 mm 3 mps 764 mmHg 77%
    01:00 +17°C° 0 mm 2 mps 763 mmHg 78%
    02:00 +16°C° 0 mm 2 mps 763 mmHg 79%
    03:00 +16°C° 0 mm 2 mps 763 mmHg 81%
    04:00 +15°C° 0 mm 2 mps 763 mmHg 83%
    05:00 +16°C° 0 mm 2 mps 763 mmHg 80%
    06:00 +17°C° 0 mm 2 mps 763 mmHg 77%
    07:00 +18°C° 0 mm 2 mps 763 mmHg 74%
    08:00 +20°C° 0 mm 3 mps 763 mmHg 63%
    09:00 +24°C° 0 mm 3 mps 762 mmHg 52%
    10:00 +26°C° 0 mm 4 mps 762 mmHg 41%
    11:00 +28°C° 0 mm 5 mps 761 mmHg 35%
    12:00 +30°C° 0 mm 5 mps 760 mmHg 29%
    13:00 +32°C° 0 mm 6 mps 759 mmHg 23%
    14:00 +30°C° 0 mm 7 mps 759 mmHg 31%
    15:00 +28°C° 0 mm 8 mps 758 mmHg 39%
    16:00 +27°C° 0 mm 8 mps 757 mmHg 47%
    17:00 +24°C° 0 mm 7 mps 757 mmHg 54%
    18:00 +23°C° 0 mm 6 mps 758 mmHg 61%
    19:00 +21°C° 0 mm 6 mps 758 mmHg 68%
    20:00 +20°C° 0 mm 4 mps 758 mmHg 71%
    21:00 +20°C° 0 mm 3 mps 758 mmHg 74%
    22:00 +19°C° 0 mm 2 mps 759 mmHg 77%
    23:00 +19°C° 0 mm 2 mps 758 mmHg 74%

    Day after tomorrow, 19 November, Tuesday

    Time Temperature Precipitation Wind Pressure Humidity
    00:00 +18°C° 0 mm 2 mps 758 mmHg 70%
    01:00 +18°C° 0 mm 2 mps 758 mmHg 67%
    02:00 +18°C° 0 mm 2 mps 758 mmHg 61%
    03:00 +17°C° 0 mm 3 mps 758 mmHg 55%
    04:00 +17°C° 0 mm 3 mps 758 mmHg 50%
    05:00 +19°C° 0 mm 2 mps 758 mmHg 44%
    06:00 +21°C° 0 mm 2 mps 758 mmHg 39%
    07:00 +23°C° 0 mm 2 mps 758 mmHg 33%
    08:00 +27°C° 0 mm 2 mps 758 mmHg 27%
    09:00 +31°C° 0 mm 2 mps 758 mmHg 21%
    10:00 +34°C° 0 mm 1 mps 757 mmHg 16%
    11:00 +37°C° 0 mm 2 mps 757 mmHg 14%
    12:00 +38°C° 0 mm 3 mps 756 mmHg 12%
    13:00 +41°C° 0 mm 4 mps 755 mmHg 10%
    14:00 +38°C° 0 mm 4 mps 755 mmHg 12%
    15:00 +37°C° 0 mm 4 mps 755 mmHg 14%
    16:00 +36°C° 0 mm 4 mps 755 mmHg 15%
    17:00 +32°C° 0 mm 6 mps 756 mmHg 34%
    18:00 +27°C° 0 mm 7 mps 757 mmHg 54%
    19:00 +21°C° 0 mm 9 mps 757 mmHg 73%
    20:00 +21°C° 0 mm 8 mps 758 mmHg 72%
    21:00 +20°C° 0 mm 8 mps 759 mmHg 72%
    22:00 +20°C° 0 mm 7 mps 760 mmHg 72%
    23:00 +19°C° 0 mm 6 mps 760 mmHg 73%

    20 November, Wednesday

    Time Temperature Precipitation Wind Pressure Humidity
    00:00 +19°C° 0 mm 6 mps 761 mmHg 75%
    01:00 +17°C° 0 mm 5 mps 761 mmHg 76%
    02:00 +17°C° 0 mm 5 mps 761 mmHg 76%
    03:00 +18°C° 0 mm 4 mps 761 mmHg 75%
    04:00 +18°C° 0 mm 4 mps 761 mmHg 75%
    05:00 +18°C° 0 mm 3 mps 761 mmHg 73%
    06:00 +19°C° 0 mm 3 mps 762 mmHg 71%
    07:00 +19°C° 0 mm 3 mps 762 mmHg 69%
    08:00 +20°C° 0 mm 2 mps 762 mmHg 67%
    09:00 +20°C° 0 mm 2 mps 762 mmHg 64%
    10:00 +21°C° 0 mm 2 mps 762 mmHg 61%
    11:00 +24°C° 0 mm 2 mps 762 mmHg 55%
    12:00 +25°C° 0 mm 3 mps 761 mmHg 50%
    13:00 +27°C° 0 mm 3 mps 761 mmHg 44%
    14:00 +27°C° 0 mm 4 mps 760 mmHg 48%
    15:00 +26°C° 0 mm 4 mps 760 mmHg 51%
    16:00 +25°C° 0 mm 5 mps 760 mmHg 55%
    17:00 +23°C° 0 mm 4 mps 760 mmHg 63%
    18:00 +22°C° 0 mm 4 mps 761 mmHg 72%
    19:00 +20°C° 0 mm 4 mps 762 mmHg 80%
    20:00 +20°C° 0 mm 4 mps 762 mmHg 84%
    21:00 +20°C° 0 mm 3 mps 762 mmHg 87%
    22:00 +19°C° 0 mm 3 mps 763 mmHg 90%
    23:00 +19°C° 0 mm 3 mps 762 mmHg 89%

    21 November, Thursday

    Time Temperature Precipitation Wind Pressure Humidity
    00:00 +19°C° 0 mm 2 mps 762 mmHg 89%
    01:00 +20°C° 0 mm 2 mps 761 mmHg 88%
    02:00 +19°C° 0 mm 2 mps 761 mmHg 88%
    03:00 +19°C° 0 mm 2 mps 761 mmHg 88%
    04:00 +19°C° 0 mm 2 mps 760 mmHg 88%
    05:00 +20°C° 0 mm 2 mps 760 mmHg 83%
    06:00 +23°C° 0 mm 2 mps 761 mmHg 78%
    07:00 +24°C° 0 mm 2 mps 761 mmHg 73%
    08:00 +26°C° 0 mm 3 mps 760 mmHg 61%
    09:00 +29°C° 0 mm 4 mps 760 mmHg 48%
    10:00 +33°C° 0 mm 4 mps 760 mmHg 36%
    11:00 +34°C° 0 mm 5 mps 759 mmHg 33%
    12:00 +36°C° 0 mm 5 mps 758 mmHg 31%
    13:00 +38°C° 0 mm 6 mps 758 mmHg 28%
    14:00 +35°C° 0 mm 6 mps 757 mmHg 35%
    15:00 +34°C° 0 mm 7 mps 757 mmHg 42%
    16:00 +32°C° 0 mm 7 mps 756 mmHg 48%
    17:00 +29°C° 0 mm 7 mps 756 mmHg 56%
    18:00 +27°C° 0 mm 7 mps 757 mmHg 64%
    19:00 +24°C° 0 mm 6 mps 757 mmHg 71%
    20:00 +25°C° 0 mm 5 mps 757 mmHg 73%
    21:00 +25°C° 0 mm 5 mps 758 mmHg 75%
    22:00 +23°C° 0 mm 4 mps 758 mmHg 76%
    23:00 +23°C° 0 mm 5 mps 758 mmHg 78%

    22 November, Friday

    Time Temperature Precipitation Wind Pressure Humidity
    00:00 +22°C° 0 mm 6 mps 758 mmHg 79%
    01:00 +22°C° 0 mm 7 mps 758 mmHg 81%
    02:00 +21°C° 0 mm 6 mps 758 mmHg 83%
    03:00 +20°C° 0 mm 6 mps 758 mmHg 84%
    04:00 +20°C° 0 mm 5 mps 758 mmHg 86%
    05:00 +21°C° 0 mm 4 mps 758 mmHg 79%
    06:00 +24°C° 0 mm 3 mps 759 mmHg 72%
    07:00 +25°C° 0 mm 2 mps 759 mmHg 65%
    08:00 +28°C° 0 mm 2 mps 759 mmHg 54%
    09:00 +31°C° 0 mm 2 mps 758 mmHg 43%
    10:00 +35°C° 0 mm 2 mps 758 mmHg 32%
    11:00 +36°C° 0 mm 3 mps 758 mmHg 31%
    12:00 +37°C° 0 mm 5 mps 757 mmHg 30%
    13:00 +39°C° 0 mm 6 mps 756 mmHg 29%
    14:00 +38°C° 0 mm 6 mps 756 mmHg 35%
    15:00 +35°C° 0 mm 6 mps 756 mmHg 41%
    16:00 +33°C° 0 mm 6 mps 755 mmHg 46%
    17:00 +30°C° 0.1 mm 6 mps 756 mmHg 54%
    18:00 +28°C° 0.1 mm 6 mps 756 mmHg 62%
    19:00 +24°C° 0.1 mm 6 mps 757 mmHg 70%
    20:00 +25°C° 0.1 mm 5 mps 757 mmHg 72%
    21:00 +23°C° 0.1 mm 5 mps 757 mmHg 75%
    22:00 +23°C° 0.1 mm 4 mps 758 mmHg 78%
    23:00 +24°C° 0 mm 3 mps 757 mmHg 80%
    Show more